User: anonymous   Login
Location: Unspecified
(0.0000°N, 0.0000°E)
Time: 12:02:15
(UTC+00:00)
Language:

Helios 1A - Orbit

View from above orbital plane
View from above orbital plane
View from above satellite
View from above satellite

Ground track
Ground track

The orbit data is extracted from the following two-line orbital elements,

1 23605U 95033A   18257.90731236 0.00000200  00000-0  20187-4 0    07
2 23605  98.2005 328.9586 0013825  38.7261 321.2738 14.91074159    06
Epoch (UTC): 14 September 2018 21:46:31
Eccentricity: 0.0013825
inclination: 98.2005°
perigee height: 585 km
apogee height: 604 km
right ascension of ascending node: 328.9586°
argument of perigee: 38.7261°
revolutions per day: 14.91074159
mean anomaly at epoch: 321.2738°
orbit number at epoch: 0

The dashed part of the orbit path shows where the satellite is in the earth's shadow,  

DLR